User: anonymous   Login
Location: Unspecified
(0.0000°N, 0.0000°E)
Time: 22:49:59
(UTC+02:00)
Language:

Ariane H10 - Orbit

View from above orbital plane
View from above orbital plane
View from above satellite
View from above satellite

Ground track
Ground track

The orbit data is extracted from the following two-line orbital elements,

1 21815U 91084C   18199.40951228 +.00000064 +00000-0 +39493-3 0  9999
2 21815 003.9395 286.3661 7196019 030.1420 356.3675 02.31862230221549
Epoch (UTC): 18 July 2018 09:49:41
Eccentricity: 0.7196019
inclination: 3.9395°
perigee height: 383 km
apogee height: 35086 km
right ascension of ascending node: 286.3661°
argument of perigee: 30.1420°
revolutions per day: 2.31862230
mean anomaly at epoch: 356.3675°
orbit number at epoch: 22154

The dashed part of the orbit path shows where the satellite is in the earth's shadow,  

DLR